Location: ActonStarParty
(42.4766°N, 71.4538°W)
Time: 07:45:13
(UTC-04:00)

Daily predictions for brighter satellites

Satellite Brightness Start Highest point End
(mag) Time Altitude Azimuth Time Altitude Azimuth Time Altitude Azimuth
BREEZE-M DEB (TANK) 3.8 19:42:14 10° SW 19:46:10 64° SE 20:00:35 10° ENE
Cosmos 2333 Rocket 2.7 19:52:25 10° S 19:57:36 38° ESE 20:02:46 10° NE
Cosmos 1610 Rocket 4.5 19:52:17 10° S 19:58:19 65° E 20:04:26 10° NNE
Cosmos 1844 Rocket 2.7 19:55:02 10° NNW 20:00:45 78° ENE 20:06:24 10° SSE
COSMOS 2428 2.7 19:56:58 10° SSW 20:02:39 72° ESE 20:08:22 10° NNE
Cosmos 2333 4.2 19:58:39 10° SSW 20:04:18 77° ESE 20:09:56 10° NNE
Resurs 1-3 4.3 20:00:24 10° SE 20:04:26 37° ENE 20:08:29 10° N
Sich 1 3.1 20:00:16 10° N 20:04:29 58° E 20:08:41 10° SSE
Cosmos 1151 Rocket 4.4 20:01:59 10° SE 20:05:02 20° E 20:08:06 10° NE
ERS-2 2.2 20:02:40 10° SSE 20:06:17 62° ENE 20:09:56 10° N
FREGAT/IRIS 4.1 20:03:31 10° S 20:06:17 38° W 20:09:05 10° NNW
CZ-2D R/B 3.2 20:02:58 10° SSE 20:06:45 89° E 20:10:36 10° NNW
Cosmos 1455 3.0 20:03:46 10° SSE 20:07:11 32° E 20:10:39 10° NNE
Cosmos 1844 3.8 20:01:40 10° NNW 20:07:21 69° ENE 20:13:05 10° SSE
Cosmos 2251 Rocket 3.6 20:04:40 10° NNW 20:10:05 85° ENE 20:15:27 10° SSE
Envisat 3.1 20:06:24 10° SSE 20:11:29 88° WSW 20:16:36 10° NNW
USA 186 1.3 20:10:01 10° SSE 20:12:08 41° ENE 20:14:20 10° N
Cosmos 2219 Rocket 2.2 20:06:45 10° S 20:12:18 59° ESE 20:17:51 10° NNE
Meteor 2-2 Rocket 4.4 20:06:44 10° S 20:12:29 63° E 20:18:23 10° NNE
Cosmos 1892 2.8 20:10:20 10° N 20:14:12 60° E 20:18:01 10° SSE
Cosmos 2237 Rocket 2.9 20:09:37 10° SSE 20:14:25 30° ESE 20:19:14 10° NE
BREEZE-M DEB (TANK) 4.2 20:09:20 10° WNW 20:15:19 45° SW 20:18:39 10° SE
YAOGAN 6 2.6 20:15:42 10° SSE 20:19:15 60° ENE 20:22:52 10° N
Meteor 2-14 Rocket 4.5 20:13:46 10° S 20:19:46 64° E 20:25:49 10° NNE
Nadezhda 3 Rocket 4.0 20:14:50 10° N 20:21:11 78° E 20:27:32 10° SSE
Cosmos 2278 Rocket 2.8 20:17:42 10° NNW 20:23:05 41° ENE 20:27:58 12° SE
Meteor 2-15 Rocket 4.5 20:19:08 10° N 20:25:19 83° E 20:31:27 10° S
Cosmos 1633 Rocket 3.0 20:22:04 10° N 20:26:25 77° E 20:30:46 10° SSE
Genesis I 3.6 20:22:41 10° NNW 20:26:42 54° NE 20:30:04 14° SE
Cosmos 2098 Rocket 4.4 20:26:41 11° SE 20:29:37 19° E 20:32:30 10° NE
Meteor 2-16 Rocket 4.5 20:23:47 10° S 20:29:48 63° E 20:35:51 10° NNE
Cosmos 1515 Rocket 3.8 20:33:54 10° SSE 20:38:11 48° E 20:42:29 10° NNE
BREEZE-M DEB (TANK) 2.3 20:34:31 10° WNW 20:39:11 78° NNE 20:40:36 22° ESE
Cosmos 1340 4.0 20:35:58 10° SSW 20:39:35 43° WNW 20:43:14 10° N
Thor Agena Rocket 3.8 20:36:08 10° N 20:41:21 76° WNW 20:46:38 10° SSW
Cosmos 2228 Rocket 3.2 20:38:38 10° S 20:42:54 53° E 20:47:12 10° NNE
Lacrosse 5 4.3 20:42:15 10° NNW 20:45:19 16° N 20:48:23 10° NE
ATLAS 2AS CENTAUR R/B 3.0 20:37:57 10° NW 20:45:57 89° ENE 20:52:16 15° SE
Cosmos 1825 2.4 20:49:14 10° N 20:52:55 48° E 20:54:53 24° SE
Spot 2 Rocket 3.5 20:49:14 10° SSE 20:54:21 90° ENE 20:59:28 10° NNW
NOSS 3 (A) 4.3 20:51:50 10° SSW 20:54:35 76° ESE 20:57:39 10° NE
Cosmos 1328 Rocket 3.8 20:52:36 10° SSW 20:57:00 72° W 21:01:27 10° N
ATLAS CENTAUR R/B 1.6 20:56:04 10° SW 20:59:42 63° NW 21:03:31 10° NNE
SL-8 R/B 3.6 20:55:30 10° SW 21:00:15 69° SSE 21:05:03 10° ENE
SL-16 R/B 2.9 21:01:33 19° SSE 21:04:32 31° ESE 21:09:27 10° NE
Resurs 01 Rocket 2.5 21:02:58 10° S 21:07:15 48° W 21:11:34 10° NNW
Cosmos 1959 Rocket 4.4 21:03:15 10° S 21:09:22 69° E 21:15:27 10° NNE
Cosmos 1470 Rocket 3.8 21:05:09 10° NNW 21:09:33 70° W 21:13:18 14° S
ARGOS 3.4 21:06:46 25° SE 21:09:40 52° ENE 21:14:52 10° N
Cosmos 1727 Rocket 4.2 21:04:06 10° N 21:10:06 50° ENE 21:13:28 25° SE
MetOp-B 4.5 21:09:46 27° SE 21:12:22 49° ENE 21:17:31 10° N
Meteor 2-3 Rocket 4.5 21:07:58 10° NNW 21:13:25 52° W 21:18:51 10° S
BREEZE-M DEB (TANK) 4.2 21:08:06 10° W 21:14:29 32° NNW 21:16:53 12° NE
NOSS 3-4 (A) 4.2 21:09:27 10° NNW 21:16:18 54° NE 21:20:26 26° ESE
NOSS 3-4 (C) 4.2 21:09:33 10° NNW 21:16:24 53° NE 21:20:31 26° ESE
CZ-4B DEB 4.5 21:15:51 33° S 21:17:18 79° WSW 21:20:49 10° NNW
SL-08 RB Rocket 4.0 21:18:26 35° ESE 21:19:44 46° ENE 21:24:02 10° N
Cosmos 1869 3.2 21:19:48 21° S 21:22:23 88° E 21:26:25 10° N
NOSS 0 Rocket 4.3 21:18:00 10° SW 21:24:07 65° WNW 21:30:19 10° NNE
Meteor 2-10 Rocket 3.7 21:20:50 16° S 21:25:23 68° E 21:31:11 10° NNE
Cosmos 2218 Rocket 4.0 21:20:19 10° S 21:26:41 87° W 21:33:08 10° N
USA 267 3.7 21:22:23 10° ENE 21:28:15 35° SE 21:34:06 10° SSW
SL-08 R/B 4.5 21:23:57 11° S 21:30:00 81° E 21:36:28 10° N
SPOT 1/Viking Rocket 4.4 21:29:01 30° E 21:30:09 34° ENE 21:34:49 10° N
USA 81 4.1 21:25:18 10° N 21:30:32 61° E 21:32:21 39° SE
Cosmos 1980 4.2 21:25:10 10° SW 21:30:46 62° WNW 21:36:26 10° NNE
ERS-1 Rocket 3.1 21:30:09 40° SE 21:31:41 57° ENE 21:36:37 10° N
Cosmos 407 Rocket 3.4 21:27:37 10° NNW 21:32:44 66° ENE 21:34:17 43° SE
Cosmos 2297 3.8 21:29:56 10° NNW 21:35:34 61° ENE 21:37:25 41° ESE
Cosmos 1408 3.9 21:32:52 10° NNW 21:36:17 37° W 21:38:11 21° SSW
H-2A R/B 1.9 21:36:33 43° SE 21:38:11 72° ENE 21:43:09 10° N
Cosmos 2366 rocket 4.1 21:31:59 10° S 21:38:12 79° W 21:44:31 10° N
Cosmos 2369 Rocket 4.0 21:38:07 10° N 21:41:51 17° NE 21:43:31 16° ENE
Cosmos 2333 Rocket 3.9 21:36:47 10° WSW 21:41:52 33° NW 21:46:59 10° N
Cosmos 1371 Rocket 4.2 21:37:20 10° SSW 21:42:38 72° WNW 21:48:01 10° NNE
Cosmos 1441 Rocket 3.4 21:45:32 54° NE 21:45:32 54° NE 21:48:38 10° NNE
Helios 1B rocket 3.8 21:46:32 10° NNE 21:48:47 26° NE 21:48:47 26° NE
Landsat 7 4.5 21:51:06 38° ENE 21:51:10 38° ENE 21:55:34 10° N
Cosmos 1707 Rocket 3.6 21:52:59 58° ENE 21:52:59 58° ENE 21:56:50 10° NNE
Cosmos 676 Rocket 4.0 21:47:38 10° NNW 21:52:51 62° ENE 21:53:36 55° ESE
MetOp-A 4.4 21:51:20 34° S 21:53:40 65° WSW 21:59:00 10° NNW
CZ-4C R/B 3.8 21:59:36 19° ENE 21:59:36 19° ENE 22:01:28 10° NE
Cosmos 2237 Rocket 3.5 21:53:01 10° SW 21:58:17 41° WNW 22:03:36 10° NNE
Cosmos 1869 Rocket 3.5 21:56:13 10° N 22:00:35 77° W 22:00:54 72° SW
USA 234 4.5 21:58:19 17° ENE 22:02:36 34° NNE 22:08:20 10° NW
Cosmos 2056 Rocket 4.1 21:58:49 10° SSW 22:04:10 59° WNW 22:09:32 10° NNE
Cosmos 1023 Rocket 4.4 21:59:41 10° NNW 22:04:50 67° ENE 22:05:09 65° E
Cosmos 1452 Rocket 3.7 22:05:38 53° ENE 22:05:38 53° ENE 22:10:11 10° NNE
Cosmos 2278 Rocket 3.7 22:02:07 10° NW 22:06:57 30° WSW 22:09:51 19° SSW
Helios 1A 3.0 22:08:42 77° NW 22:08:42 77° NW 22:12:41 10° NNW
Terra 2.6 22:09:24 38° NE 22:09:24 38° NE 22:13:21 10° N
Cosmos 1862 3.7 22:05:54 10° NNW 22:09:45 58° W 22:09:45 58° W
ATLAS 5 CENTAUR R/B 3.8 22:05:48 10° NNW 22:10:36 26° NE 22:12:36 22° ENE
Cosmos 1733 Rocket 4.2 22:07:51 10° N 22:10:52 33° NE 22:10:52 33° NE
Cosmos 405 Rocket 3.4 22:15:05 52° NW 22:15:05 52° NW 22:18:33 10° N
Cosmos 1437 Rocket 4.3 22:11:33 10° N 22:13:44 28° NNE 22:13:44 28° NNE
Cosmos 1140 Rocket 3.4 22:21:59 10° NNW 22:27:07 79° W 22:27:07 79° W
SPOT 5 3.0 22:28:34 63° WNW 22:28:34 63° WNW 22:32:42 10° NNW
ATLAS 2A CENTAUR R/B 4.5 22:16:42 10° SW 22:27:46 28° SSW 22:27:46 28° SSW
Lacrosse 5 3.2 22:25:18 10° NNW 22:29:46 30° NNE 22:30:32 28° NE
Cosmos 1934 Rocket 3.8 22:33:03 71° E 22:33:03 71° E 22:39:03 10° NNE
Cosmos 1954 Rocket 4.2 22:31:47 10° NNW 22:36:48 63° W 22:36:48 63° W
GEOS 3 Rocket 4.1 22:34:38 10° NNE 22:39:55 60° NW 22:43:44 18° WSW
Nimbus 7 Rocket 4.5 22:39:40 10° NNE 22:44:54 65° ENE 22:44:54 65° ENE
CZ-2C R/B 3.7 22:49:11 42° NNE 22:49:11 42° NNE 22:52:36 10° N
SL-16 R/B 3.4 22:43:13 10° SW 22:48:29 39° WNW 22:53:48 10° N
Cosmos 2344 3.6 22:45:05 10° SW 22:52:41 79° NW 23:01:11 10° NE
Cosmos 1943 Rocket 3.1 22:50:01 10° N 22:54:37 39° NE 22:54:37 39° NE
USA 267 3.4 23:05:02 10° NE 23:11:32 71° NW 23:18:01 10° WSW
Cosmos 1603 4.2 23:16:16 57° N 23:16:16 57° N 23:20:54 10° NNE
Cosmos 2123 Rocket 4.2 23:09:43 10° NNW 23:15:50 61° W 23:15:50 61° W
H-2A R/B 4.4 23:17:10 13° WSW 23:18:05 13° W 23:20:27 10° WNW
Cosmos 1943 4.3 23:21:19 37° NE 23:21:19 37° NE 23:24:44 10° NNE
Cosmos 2369 Rocket 2.8 23:20:55 10° NNW 23:25:18 55° NNW 23:25:18 55° NNW
CZ-2C R/B 3.5 23:35:44 10° N 23:39:33 47° N 23:39:33 47° N
CZ-4C R/B 3.2 23:44:41 42° NW 23:44:45 42° NW 23:50:31 10° NNE
USA 234 3.3 23:45:38 74° NNW 23:45:38 74° NNW 23:51:38 10° NW
Terra 4.0 23:48:17 20° WNW 23:48:17 20° WNW 23:50:33 10° NW
